Find OneWeb SL0362

NORAD ID: 49288 Int'l Des: 2021-090 Owner: ONEWEBN Country: UK Constellation: oneweb operational
LEOCIRCULARPOLARONEWEB_TYPE

Live Position

Loading 3D Globe...

About OneWeb SL0362

Description loading...

Upcoming Passes

Passes for default location (London). Set your location on the main map for personalized predictions.

Altitude History

Loading altitude history...

Two-Line Element Set

1 49288U 21090K 26125.94727884 .00000057 00000-0 11068-3 0 9999
2 49288 87.9148 313.4024 0001557 84.6071 275.5239 13.19725273221346
Epoch: May 5, 2026 • Age: 11 hours

Current Status

Altitude 1190.5 km
Velocity 7.26 km/s
Sub-Earth Point -9.55°S, 55.36°W
Launch Date Oct 14, 2021
Age 4.5 years
Type internet

Technical Details

Classification Payload
Mass 148.00 kg
Dry Mass 140.00 kg
Total Mass 148.00 kg
Length 1.30 m
Diameter 1.00 m
Span 5.00 m
Shape Trapezoid+2 pan
Manufacturer ONEWUS
Bus Type ARROW
Phase Status In Orbit
Owner/State ONEWEBN/UK

Most Searched